Destin, FL

8:19 PM CDT on April 19, 2018 (GMT -0500)
Destin-Fort Walton Beach

Weather History for KDTS - January, 2013

Change the Weather History Date:

Thursday, January 17, 2013

  Actual Average Record
Temperature  
Mean Temperature 48 °F -  
Max Temperature 52 °F 58 °F 75 °F (2017)
Min Temperature 43 °F 43 °F 25 °F (1997)
Degree Days  
Heating Degree Days 18    
Moisture  
Dew Point 39 °F    
Average Humidity 74    
Maximum Humidity 93    
Minimum Humidity 57    
Precipitation  
Precipitation 0.01 in - - ()
Sea Level Pressure  
Sea Level Pressure 30.11 in    
Wind  
Wind Speed 8 mph (NW)    
Max Wind Speed 21 mph    
Max Gust Speed 31 mph    
Visibility 9 miles    
Events Rain    
Averages and records for this station are not official NWS values.
T = Trace of Precipitation, MM = Missing Value Source: NWS Daily Summary

Daily Weather History Graph

Daily Weather History Graph

Search for Another Location

Airport or City:

Astronomy

Jan. 17, 2013 Rise Set
Actual Time 6:42 AM CST 5:09 PM CST
Civil Twilight 6:17 AM CST 5:35 PM CST
Nautical Twilight 5:47 AM CST 6:04 PM CST
Astronomical Twilight 5:18 AM CST 6:33 PM CST
Moon 10:20 AM CST (1/17) 11:27 PM CST (1/17)
Length of Visible Light 11h 18m
Length of Day
10h 26m
Waxing Crescent, 38% of the Moon is Illuminated
Jan 17
Waxing Crescent
Jan 18
First Quarter
Jan 26
Full
Feb 3
Last Quarter
Feb 10
New

Hourly Weather History & Observations

Time (CST) Temp. Windchill Dew Point Humidity Pressure Visibility Wind Dir Wind Speed Gust Speed Precip Events Conditions
12:53 AM 52.0 °F - 48.9 °F 89% 30.00 in 7.0 mi Variable 4.6 mph - 0.00 in   Overcast
1:04 AM 51.8 °F - 48.2 °F 88% 30.00 in 7.0 mi WNW 6.9 mph - N/A   Overcast
1:30 AM 51.8 °F - 48.2 °F 88% 30.01 in 10.0 mi Calm Calm - N/A   Overcast
1:53 AM 51.1 °F - 48.0 °F 89% 30.01 in 10.0 mi Variable 5.8 mph - N/A   Overcast
2:50 AM 50.0 °F - 46.4 °F 87% 30.00 in 10.0 mi Variable 3.5 mph - N/A   Overcast
2:53 AM 50.0 °F - 46.0 °F 86% 30.01 in 10.0 mi Variable 5.8 mph - N/A   Overcast
3:03 AM 50.0 °F - 46.4 °F 87% 30.00 in 10.0 mi Variable 6.9 mph - N/A   Overcast
3:43 AM 48.2 °F - 46.4 °F 93% 30.01 in 6.0 mi Variable 3.5 mph - N/A   Overcast
3:50 AM 48.2 °F - 46.4 °F 93% 30.01 in 5.0 mi Variable 5.8 mph - N/A   Overcast
3:53 AM 48.9 °F - 45.0 °F 86% 30.01 in 5.0 mi Variable 4.6 mph - N/A   Overcast
4:53 AM 48.0 °F - 45.0 °F 89% 30.02 in 8.0 mi Variable 4.6 mph - 0.01 in Rain Light Rain
5:46 AM 46.4 °F 45.2 °F 39.2 °F 76% 30.04 in 10.0 mi Variable 3.5 mph 19.6 mph 0.00 in   Overcast
5:53 AM 46.9 °F - 39.9 °F 77% 30.04 in 10.0 mi WNW 8.1 mph 21.9 mph 0.00 in   Overcast
6:53 AM 46.9 °F - 39.9 °F 77% 30.06 in 10.0 mi Variable 5.8 mph 21.9 mph N/A   Overcast
7:53 AM 44.1 °F 39.0 °F 36.0 °F 73% 30.09 in 10.0 mi West 9.2 mph - N/A   Overcast
8:53 AM 43.0 °F 38.8 °F 36.0 °F 76% 30.12 in 10.0 mi Variable 6.9 mph - N/A   Mostly Cloudy
9:53 AM 45.0 °F 41.8 °F 36.0 °F 71% 30.12 in 10.0 mi Variable 5.8 mph - N/A   Overcast
10:53 AM 44.1 °F 40.1 °F 33.1 °F 65% 30.13 in 10.0 mi Variable 6.9 mph - N/A   Overcast
11:53 AM 43.0 °F 35.4 °F 30.9 °F 62% 30.13 in 10.0 mi NW 16.1 mph 27.6 mph N/A   Mostly Cloudy
12:53 PM 44.1 °F 36.8 °F 30.9 °F 60% 30.11 in 10.0 mi NW 16.1 mph 24.2 mph N/A   Overcast
1:15 PM 44.6 °F 38.8 °F 30.2 °F 57% 30.12 in 10.0 mi NW 11.5 mph 27.6 mph N/A   Mostly Cloudy
1:53 PM 45.0 °F 38.2 °F 30.9 °F 58% 30.12 in 10.0 mi NW 15.0 mph 31.1 mph N/A   Overcast
2:53 PM 46.0 °F 40.6 °F 33.1 °F 61% 30.13 in 10.0 mi NW 11.5 mph 24.2 mph N/A   Overcast
3:53 PM 46.9 °F - 34.0 °F 61% 30.16 in 10.0 mi NW 15.0 mph 27.6 mph N/A   Overcast
4:53 PM 46.9 °F - 35.1 °F 63% 30.18 in 10.0 mi NW 13.8 mph 27.6 mph N/A   Mostly Cloudy
5:53 PM 46.0 °F 39.0 °F 35.1 °F 66% 30.21 in 10.0 mi NNW 17.3 mph 26.5 mph N/A   Clear
6:53 PM 45.0 °F 38.2 °F 35.1 °F 68% 30.24 in 10.0 mi NNW 15.0 mph 23.0 mph N/A   Clear
7:53 PM 45.0 °F 37.4 °F 33.1 °F 63% 30.26 in 10.0 mi NNW 18.4 mph 27.6 mph N/A   Clear
8:53 PM 44.1 °F 36.2 °F 33.1 °F 65% 30.27 in 10.0 mi NNW 18.4 mph 26.5 mph N/A   Clear
9:53 PM 45.0 °F 36.9 °F 34.0 °F 65% 30.26 in 10.0 mi NNW 20.7 mph 29.9 mph N/A   Clear
10:53 PM 44.1 °F 36.8 °F 35.1 °F 71% 30.26 in 10.0 mi NNW 16.1 mph 26.5 mph N/A   Clear
11:53 PM 45.0 °F 38.2 °F 34.0 °F 65% 30.27 in 10.0 mi North 15.0 mph 21.9 mph N/A   Clear